Location: Academy at Carrie F Thomas
(32.8490°N, 97.2053°W)
Time: 10:23:07
(UTC+00:00)

CZ-4B R/B - Pass Details

Date: 08 December 2021
Orbit: 378 x 440 km, 97.6° (Epoch: 28 January)

Event Time Altitude Azimuth Distance (km) Brightness Sun altitude
Rises 12:30:18 0° 136° (SE) 2,418 6.4 -10.2°
Maximum altitude 12:35:05 18° 72° (ENE) 1,133 4.2 -9.3°
Drops below altitude 10° 12:37:25 10° 27° (NNE) 1,532 4.2 -8.9°
Sets 12:39:49 0° 8° (N) 2,389 4.9 -8.4°
